Weather History for Boothville, LA

Change the Weather History Date:

Wednesday, January 2, 2013

  Actual Average Record
Temperature  
Mean Temperature 52 °F -  
Max Temperature 55 °F - - ()
Min Temperature 48 °F - - ()
Degree Days  
Heating Degree Days 14    
Growing Degree Days 2 (Base 50)    
Moisture  
Dew Point 49 °F    
Average Humidity 92    
Maximum Humidity 100    
Minimum Humidity 86    
Precipitation  
Precipitation 0.20 in - - ()
Sea Level Pressure  
Sea Level Pressure 30.12 in    
Wind  
Wind Speed 9 mph (North)    
Max Wind Speed 14 mph    
Max Gust Speed 21 mph    
Visibility 6 miles    
Events Rain    
T = Trace of Precipitation, MM = Missing Value Source: NWS Daily Summary

Daily Weather History Graph

Daily Weather History Graph

Search for Another Location

Airport:

Trip Planner

Search our weather history database for the weather conditions in past years. The results will help you decide how hot, cold, wet, or windy it might be!

Date:

Astronomy

Jan. 02, 2013 Rise Set
Actual Time 6:52 AM CST 5:11 PM CST
Civil Twilight 6:26 AM CST 5:37 PM CST
Nautical Twilight 5:56 AM CST 6:07 PM CST
Astronomical Twilight 5:27 AM CST 6:36 PM CST
Moon 10:16 PM CST (1/2) 9:58 AM CST (1/2)
Length of Visible Light 11h 11m
Length of Day
10h 19m
Waning Gibbous, 75% of the Moon is Illuminated
Jan 2
Waning Gibbous
Jan 4
Last Quarter
Jan 11
New
Jan 18
First Quarter
Jan 26
Full

Hourly Weather History & Observations

Time (CST) Temp. Dew Point Humidity Pressure Visibility Wind Dir Wind Speed Gust Speed Precip Events Conditions
12:17 AM 55.4 °F 55.4 °F 100% 30.04 in 10.0 mi NNW 8.1 mph - N/A   Overcast
12:24 AM 55.4 °F 55.4 °F 100% 30.03 in 10.0 mi North 6.9 mph - N/A   Overcast
12:51 AM 55.9 °F 54.0 °F 93% 30.04 in 10.0 mi NNW 10.4 mph - N/A   Overcast
1:09 AM 55.4 °F 53.6 °F 94% 30.05 in 10.0 mi NNW 10.4 mph - N/A   Overcast
1:51 AM 55.0 °F 53.1 °F 93% 30.05 in 10.0 mi NNW 11.5 mph - N/A   Overcast
2:51 AM 55.0 °F 53.1 °F 93% 30.05 in 10.0 mi North 9.2 mph - N/A   Overcast
3:16 AM 53.6 °F 51.8 °F 94% 30.05 in 10.0 mi North 8.1 mph 16.1 mph N/A   Overcast
3:51 AM 54.0 °F 52.0 °F 93% 30.05 in 10.0 mi North 11.5 mph 18.4 mph N/A   Overcast
4:51 AM 54.0 °F 51.1 °F 90% 30.06 in 10.0 mi North 9.2 mph 19.6 mph N/A   Overcast
5:51 AM 53.1 °F 51.1 °F 93% 30.08 in 10.0 mi North 10.4 mph 16.1 mph N/A   Overcast
6:51 AM 53.1 °F 51.1 °F 93% 30.10 in 10.0 mi North 12.7 mph 19.6 mph N/A   Overcast
7:51 AM 52.0 °F 50.0 °F 93% 30.13 in 10.0 mi North 10.4 mph 19.6 mph N/A   Overcast
8:35 AM 51.8 °F 48.2 °F 88% 30.15 in 10.0 mi North 8.1 mph 17.3 mph N/A   Overcast
8:51 AM 52.0 °F 48.9 °F 89% 30.15 in 10.0 mi North 9.2 mph 18.4 mph N/A   Overcast
9:51 AM 52.0 °F 48.9 °F 89% 30.16 in 10.0 mi North 6.9 mph 18.4 mph N/A   Overcast
10:30 AM 51.8 °F 48.2 °F 88% 30.14 in 9.0 mi North 9.2 mph - N/A   Overcast
10:51 AM 52.0 °F 48.9 °F 89% 30.15 in 10.0 mi North 8.1 mph - N/A   Overcast
11:51 AM 51.1 °F 48.0 °F 89% 30.13 in 6.0 mi North 9.2 mph - 0.00 in   Overcast
12:51 PM 51.1 °F 48.9 °F 92% 30.11 in 2.5 mi North 8.1 mph - 0.00 in Rain Light Rain
12:59 PM 51.8 °F 48.2 °F 88% 30.11 in 2.5 mi North 8.1 mph - 0.01 in Rain Light Rain
1:18 PM 50.0 °F 48.2 °F 94% 30.10 in 2.5 mi North 8.1 mph - 0.01 in Rain Light Rain
1:27 PM 50.0 °F 48.2 °F 94% 30.10 in 4.0 mi Variable 6.9 mph - 0.01 in Rain Light Rain
1:38 PM 51.8 °F 48.2 °F 88% 30.10 in 5.0 mi Variable 6.9 mph - 0.01 in   Overcast
1:51 PM 50.0 °F 48.9 °F 96% 30.10 in 2.5 mi North 8.1 mph - 0.01 in Rain Light Rain
2:01 PM 51.8 °F 48.2 °F 88% 30.09 in 1.8 mi Variable 6.9 mph - 0.00 in Rain Light Rain
2:10 PM 51.8 °F 48.2 °F 88% 30.09 in 2.5 mi North 6.9 mph - 0.00 in Rain Light Rain
2:19 PM 51.8 °F 48.2 °F 88% 30.09 in 4.0 mi North 8.1 mph - 0.00 in Rain Light Rain
2:30 PM 51.8 °F 48.2 °F 88% 30.10 in 5.0 mi North 6.9 mph - 0.00 in   Overcast
2:51 PM 51.1 °F 48.0 °F 89% 30.11 in 6.0 mi North 6.9 mph - 0.00 in Rain Light Rain
3:00 PM 50.0 °F 48.2 °F 94% 30.11 in 3.0 mi North 8.1 mph - 0.00 in Rain Light Rain
3:11 PM 51.8 °F 48.2 °F 88% 30.12 in 5.0 mi North 6.9 mph - 0.00 in Rain Light Rain
3:30 PM 50.0 °F 48.2 °F 94% 30.14 in 2.5 mi NNW 13.8 mph - 0.00 in Rain Light Rain
3:40 PM 50.0 °F 48.2 °F 94% 30.15 in 1.5 mi NNW 12.7 mph 20.7 mph 0.00 in Rain Light Rain
3:51 PM 50.0 °F 48.0 °F 93% 30.14 in 2.0 mi NNW 10.4 mph - 0.01 in Rain Light Rain
4:02 PM 50.0 °F 48.2 °F 94% 30.14 in 5.0 mi NNW 11.5 mph - 0.00 in Rain Light Rain
4:13 PM 50.0 °F 48.2 °F 94% 30.14 in 7.0 mi NNW 12.7 mph - 0.00 in   Overcast
4:51 PM 50.0 °F 46.9 °F 89% 30.15 in 9.0 mi NNW 11.5 mph 19.6 mph 0.00 in   Overcast
5:51 PM 51.1 °F 46.9 °F 86% 30.15 in 10.0 mi NNW 11.5 mph 19.6 mph N/A   Overcast
6:51 PM 51.1 °F 46.9 °F 86% 30.14 in 10.0 mi North 9.2 mph - N/A   Overcast
7:51 PM 50.0 °F 48.0 °F 93% 30.19 in 8.0 mi NNW 11.5 mph - 0.00 in Rain Light Rain
8:06 PM 50.0 °F 46.4 °F 87% 30.18 in 9.0 mi NNW 13.8 mph 19.6 mph 0.00 in Rain Light Rain
8:51 PM 50.0 °F 46.9 °F 89% 30.17 in 8.0 mi North 8.1 mph 19.6 mph 0.00 in   Overcast
9:51 PM 48.9 °F 46.9 °F 93% 30.19 in 5.0 mi Variable 5.8 mph - 0.00 in Rain Light Rain
10:01 PM 48.2 °F 46.4 °F 93% 30.18 in 4.0 mi North 6.9 mph - 0.01 in Rain Light Rain
10:18 PM 48.2 °F 48.2 °F 100% 30.18 in 4.0 mi North 8.1 mph - 0.03 in Rain Rain
10:51 PM 48.9 °F 46.9 °F 93% 30.19 in 4.0 mi NNW 13.8 mph 18.4 mph 0.07 in Rain Rain
10:59 PM 48.2 °F 46.4 °F 93% 30.20 in 3.0 mi NNW 12.7 mph - 0.02 in Rain Rain
11:15 PM 48.2 °F 46.4 °F 93% 30.20 in 4.0 mi North 10.4 mph 18.4 mph 0.04 in Rain Rain
11:43 PM 48.2 °F 46.4 °F 93% 30.21 in 4.0 mi NNW 11.5 mph - 0.10 in Rain Rain
11:51 PM 48.0 °F 46.9 °F 96% 30.22 in 4.0 mi NNW 9.2 mph - 0.11 in Rain Light Rain